Temperature
18 18 18 18 18 18 18 18 18 18 18 18 17 17 17 17 17 16 16 16 16 16 16 16 16 16 16 16 16 16 15 15 15 15 15 15 15 15
17 17 17 17 17 18 18 18 18 18 17 17 17 17 17 17 16 16 16 16 16 16 16 16 16 16 16 16 16 16 15 15 15 15 15 15 15 15
17 17 17 17 17 17 17 17 17 17 17 17 17 17 17 17 16 16 16 16 16 16 16 16 16 16 16 16 16 15 15 15 15 15 15 15 15 15
16 16 17 17 17 17 17 17 17 17 17 17 16 16 16 16 16 16 16 16 16 16 16 16 16 15 15 15 15 15 15 15 15 15 15 15 15 15
16 16 16 16 16 16 16 16 16 16 16 16 16 16 16 16 16 16 15 15 15 16 16 16 15 15 15 15 15 15 15 15 15 15 15 15 15 14
16 16 16 16 16 16 16 16 16 16 16 16 16 16 16 15 15 15 15 15 15 15 15 15 15 15 15 15 15 15 15 15 15 15 15 14 14 14
16 16 16 16 16 15 15 15 15 15 15 15 15 15 15 15 15 15 15 15 15 15 15 15 15 15 15 15 15 15 14 14 14 14 14 14 14 14
16 16 15 15 15 15 15 15 15 15 15 14 14 14 14 14 14 14 14 14 14 14 14 14 14 14 15 15 15 14 14 14 14 14 14 14 14 14
15 15 15 15 15 15 15 14 14 14 14 14 14 14 14 14 14 14 14 14 14 14 14 14 14 14 14 14 14 14 14 14 14 14 14 14 14 13
15 15 15 15 15 15 14 14 14 14 14 14 14 14 14 14 14 14 14 13 14 14 14 14 14 14 14 14 14 14 14 14 14 14 14 13 13 13
15 15 15 15 15 14 14 14 14 14 14 14 14 14 14 14 13 13 13 13 13 13 13 13 13 13 14 14 14 14 14 14 13 13 13 13 13 13
15 14 14 14 14 14 14 14 13 13 13 13 13 13 13 13 13 13 13 13 12 13 13 13 13 13 13 13 13 13 13 13 13 13 13 13 12 12
14 14 14 14 14 14 14 13 13 13 13 13 13 13 13 13 13 13 13 12 12 12 12 12 12 12 12 12 13 13 13 13 13 13 13 12 12 12
14 14 14 14 14 14 13 13 13 13 13 13 13 13 13 13 13 13 13 12 12 12 12 12 12 12 12 12 12 12 12 12 12 12 12 12 12 12
13 13 13 13 13 13 13 13 13 13 13 12 12 12 13 12 12 12 12 12 12 12 12 12 12 12 12 12 12 12 12 12 12 12 12 12 12 12
13 13 13 13 13 13 13 13 12 12 12 12 12 12 12 12 12 12 12 12 12 12 12 12 12 11 11 11 11 11 11 11 11 11 11 11 11 11
13 13 13 13 13 13 13 12 12 12 12 12 12 12 12 12 12 11 11 11 11 11 11 11 11 11 11 11 11 11 11 11 11 11 11 11 11 11
12 12 12 12 12 12 12 12 12 12 12 11 11 11 11 11 11 11 11 11 11 11 11 11 11 10 10 10 11 11 10 10 10 10 10 10 10 10
12 12 12 12 12 12 12 12 12 11 11 11 11 11 11 11 11 10 10 10 10 10 10 10 10 10 10 10 10 10 10 10 10 10 10 10 10 10
12 11 11 12 12 12 11 11 11 11 11 11 10 10 10 10 10 10 10 10 10 10 10 10 10 10 10 10 10 10 10 10 9 9 9 9 9 9
11 11 11 11 11 11 11 11 11 11 10 10 10 10 10 10 10 9 9 9 9 9 9 9 9 9 9 9 9 9 9 9 9 9 9 9 9 9
11 11 11 11 11 11 11 10 10 10 10 10 10 9 9 9 9 9 9 9 9 9 9 9 9 9 9 9 9 9 9 9 9 9 9 9 9 9
10 10 10 10 10 10 10 10 10 9 9 9 9 9 9 9 9 9 9 9 9 9 8 8 8 9 9 9 9 9 9 9 9 9 9 9 9 9
Wind_Speed
3 3 3 3 3 3 2 1 1 2 2 1 0 1 2 4 7 7 6 8 9 10 9 8 7 7 6 5 4 4 4 4 4 5 6 7 8 9
2 2 2 3 3 3 2 2 1 1 2 1 2 1 0 2 5 5 7 9 11 11 11 10 9 8 7 7 6 5 5 4 4 5 6 8 8 9
2 2 2 2 3 3 3 2 2 1 2 2 1 0 0 0 1 3 6 7 7 11 12 12 11 10 9 9 8 7 6 6 5 5 6 6 8 9
1 1 2 2 2 3 3 3 2 2 1 2 2 1 1 2 2 3 3 4 6 10 12 12 12 11 11 11 10 9 8 7 7 6 6 6 6 7
1 1 1 1 2 2 2 2 2 3 1 2 2 1 1 1 1 3 3 2 4 6 10 12 13 13 12 12 11 10 9 8 8 7 7 6 6 6
1 1 0 0 1 3 2 2 2 3 2 2 2 2 1 1 1 2 3 2 3 2 4 7 10 12 12 12 12 11 11 10 9 8 8 8 7 7
1 1 0 1 1 1 2 2 2 2 2 3 2 2 1 1 1 2 3 2 3 2 1 3 4 5 8 10 11 11 11 11 11 10 10 9 9 8
1 1 1 1 1 1 0 1 1 1 2 2 2 2 2 2 2 3 2 2 2 2 1 3 3 4 5 8 11 13 13 13 12 12 11 11 10 10
1 1 2 1 2 1 1 2 2 3 4 2 2 3 2 2 2 4 3 3 3 3 2 4 3 3 3 6 12 14 14 14 14 13 13 12 12 11
1 1 0 1 2 2 1 1 2 3 4 3 2 3 3 2 3 4 5 5 4 3 2 3 3 3 4 4 11 14 15 15 14 14 14 13 12 12
2 1 1 2 0 1 2 3 3 3 4 4 4 5 5 5 3 2 3 3 4 3 2 2 3 3 3 2 5 12 14 15 15 14 14 13 12 12
1 1 1 2 2 2 2 3 4 4 4 4 4 6 6 6 6 4 3 3 3 3 2 2 2 2 3 2 1 4 7 11 14 14 13 12 11 8
1 0 1 2 2 3 3 4 5 5 5 5 4 4 4 4 4 4 4 3 3 3 2 2 3 3 3 3 2 2 3 4 6 8 11 12 12 10
2 1 0 2 3 4 4 5 5 5 4 4 3 3 3 3 3 3 4 4 5 5 4 3 3 3 4 4 4 2 2 2 3 4 5 8 11 14
3 4 3 5 5 4 6 6 4 3 3 4 3 3 2 3 2 2 3 4 4 5 4 4 3 4 4 4 4 3 2 2 2 2 2 3 4 5
2 3 4 5 5 5 4 3 3 4 4 4 3 3 2 2 2 2 3 3 3 3 4 3 3 3 4 4 4 4 3 2 1 1 2 2 3 4
2 2 2 2 1 2 3 3 3 3 3 3 3 3 3 2 2 3 3 3 3 4 3 2 2 2 3 4 4 4 3 2 2 1 1 2 3 3
1 2 2 2 2 2 2 2 2 2 2 2 3 3 3 3 3 3 3 3 4 3 3 3 2 2 3 3 3 3 3 2 2 1 2 2 3 2
1 2 2 2 3 3 2 2 2 1 2 2 2 2 2 3 2 3 3 3 3 3 3 2 2 2 4 4 3 2 2 3 2 2 2 2 3 3
2 3 3 2 2 3 3 2 2 2 2 2 2 2 2 2 2 3 3 3 3 4 3 3 2 3 4 4 3 3 4 3 2 3 2 2 2 2
3 3 3 3 3 2 2 3 3 2 2 2 3 2 2 2 2 3 3 4 4 4 3 3 3 4 3 2 3 3 3 4 4 3 3 2 3 3
3 3 3 3 3 2 2 3 3 3 3 3 3 3 2 2 3 3 3 3 3 3 4 3 4 3 3 3 4 3 3 3 3 4 4 4 3 4
2 2 2 3 2 2 2 3 4 4 4 4 4 3 3 3 3 3 3 3 3 4 4 3 3 3 4 4 4 4 4 4 3 2 3 5 8 8
Wind_Direction
286 287 289 301 313 315 309 280 248 271 273 271 321 208 166 160 175 188 181 192 199 201 202 203 202 201 201 206 211 218 224 225 228 229 228 225 222 224
284 303 302 300 308 310 310 312 293 271 283 263 241 227 162 187 189 197 190 198 204 201 202 201 202 201 197 195 201 207 214 221 230 235 234 231 229 228
293 307 305 312 328 323 328 326 327 344 302 295 306 26 213 280 207 219 200 192 201 206 205 202 202 198 197 200 205 208 212 219 227 237 243 242 238 235
286 302 317 320 331 328 330 326 329 333 320 297 296 273 231 236 216 249 237 212 206 209 202 201 200 201 200 204 207 211 215 221 226 233 240 242 241 237
294 311 324 341 336 326 318 325 322 321 309 283 277 273 255 249 240 267 277 270 239 208 201 202 206 205 205 206 208 212 217 224 228 229 234 238 241 240
313 327 352 13 316 312 313 340 333 325 308 287 269 265 272 283 265 283 288 276 278 245 206 204 212 211 210 207 210 213 217 224 228 229 232 234 238 242
320 350 83 89 49 350 343 354 339 326 311 302 301 324 333 334 312 285 290 284 269 270 209 220 205 212 217 216 216 214 215 220 224 226 228 230 233 237
281 289 216 129 126 114 35 352 336 310 317 312 312 314 304 302 296 299 308 302 289 297 281 268 226 215 212 206 212 212 215 218 221 223 224 227 229 231
315 312 305 17 76 19 241 230 253 251 245 261 287 291 294 292 295 301 302 294 279 282 265 263 261 251 241 227 203 206 214 219 221 222 223 225 227 229
253 232 169 47 1 2 312 287 265 258 248 233 238 264 267 282 280 275 279 279 260 270 263 262 261 261 262 211 202 204 214 216 217 220 221 223 226 227
220 197 171 157 297 339 287 278 280 269 260 253 236 243 249 251 265 296 296 286 283 277 257 255 279 286 272 233 215 216 219 219 217 219 221 223 226 223
215 178 153 190 218 232 264 275 279 285 288 274 257 250 242 239 228 229 256 276 284 284 295 287 290 299 288 276 253 213 225 227 222 222 224 225 223 219
298 229 175 197 230 248 260 267 272 283 284 273 256 242 234 229 215 216 224 244 269 279 298 307 295 299 286 289 285 244 218 216 216 225 228 227 220 212
309 321 309 250 261 260 255 266 284 297 285 283 275 257 249 239 229 225 227 233 238 247 259 258 265 276 281 288 291 275 256 233 214 214 211 219 219 220
324 329 308 270 260 257 248 260 278 278 277 282 282 278 271 266 254 241 234 238 246 259 264 253 256 272 273 275 276 277 282 277 236 222 209 210 213 215
316 313 292 270 263 265 262 248 238 255 267 277 284 283 278 272 262 248 244 242 249 262 258 262 253 268 274 279 278 279 276 260 261 250 235 233 224 215
336 313 297 297 282 263 257 248 239 245 261 275 285 291 289 278 280 278 263 256 254 261 264 261 249 259 275 275 272 275 279 291 284 268 270 264 250 230
350 300 297 305 302 295 296 289 268 268 279 282 292 296 298 297 293 294 287 277 268 263 258 258 246 259 282 290 269 266 272 279 283 276 270 267 264 258
300 293 298 305 309 314 311 307 301 280 273 283 284 295 298 299 303 302 294 293 291 285 280 273 261 254 273 282 291 302 273 273 269 268 270 273 267 268
271 282 291 296 299 303 307 318 320 320 314 304 295 298 299 304 307 305 298 294 289 288 289 288 272 263 268 273 275 285 276 261 259 256 269 284 280 256
298 299 311 309 310 320 330 332 330 326 327 318 315 317 311 307 305 304 306 307 297 291 291 292 284 271 272 264 265 265 266 257 243 237 240 250 267 256
318 323 326 328 338 353 354 349 347 343 340 333 326 324 317 306 303 303 299 299 295 291 291 293 285 276 272 269 269 271 269 267 246 240 237 221 223 232
287 300 316 322 343 358 354 352 352 351 351 340 331 328 321 312 309 308 306 306 304 303 303 295 287 281 277 269 265 264 262 262 255 244 264 265 244 241
Height
1517 1517 1517 1518 1518 1519 1519 1519 1519 1518 1518 1517 1517 1516 1517 1517 1517 1517 1516 1517 1516 1516 1516 1516 1516 1516 1516 1516 1516 1517 1517 1517 1518 1519 1520 1520 1521 1523
1516 1515 1515 1516 1516 1516 1516 1516 1516 1516 1515 1515 1515 1514 1514 1515 1515 1515 1514 1514 1514 1514 1514 1514 1514 1514 1513 1514 1514 1514 1515 1515 1516 1516 1517 1518 1519 1520
1513 1513 1513 1513 1514 1514 1514 1514 1514 1514 1513 1513 1513 1513 1512 1512 1512 1512 1512 1512 1511 1511 1511 1511 1511 1511 1511 1511 1512 1512 1512 1513 1513 1514 1515 1515 1516 1517
1511 1511 1511 1511 1511 1511 1511 1511 1511 1512 1512 1511 1511 1510 1510 1510 1510 1510 1510 1509 1508 1509 1508 1508 1508 1509 1508 1509 1509 1509 1510 1510 1510 1511 1512 1512 1513 1514
1509 1509 1509 1509 1509 1509 1509 1509 1509 1509 1509 1509 1508 1508 1508 1507 1507 1507 1507 1507 1507 1506 1506 1505 1506 1506 1506 1506 1506 1506 1507 1507 1508 1508 1509 1509 1510 1510
1507 1507 1507 1507 1506 1506 1506 1506 1506 1506 1506 1506 1506 1506 1506 1505 1505 1505 1504 1504 1504 1504 1503 1503 1503 1503 1503 1502 1503 1503 1503 1504 1504 1505 1505 1505 1506 1507
1505 1505 1505 1505 1504 1504 1504 1504 1504 1504 1503 1503 1503 1503 1503 1503 1502 1502 1502 1502 1502 1502 1501 1500 1500 1499 1499 1499 1499 1499 1500 1500 1501 1501 1501 1501 1502 1503
1503 1503 1503 1502 1502 1502 1501 1501 1501 1501 1501 1501 1500 1500 1500 1500 1500 1500 1500 1500 1499 1499 1498 1498 1498 1496 1496 1496 1495 1496 1496 1496 1497 1497 1497 1497 1498 1498
1501 1501 1501 1500 1500 1499 1499 1498 1498 1498 1499 1499 1498 1498 1498 1497 1497 1497 1497 1497 1496 1496 1496 1495 1494 1493 1493 1493 1493 1493 1493 1493 1493 1493 1493 1493 1494 1494
1498 1498 1498 1498 1497 1497 1496 1496 1495 1495 1496 1495 1495 1495 1495 1495 1495 1494 1494 1494 1494 1493 1493 1492 1491 1490 1490 1489 1489 1489 1489 1489 1489 1489 1489 1489 1490 1490
1496 1496 1495 1495 1495 1494 1494 1493 1493 1493 1493 1493 1492 1492 1492 1492 1491 1491 1490 1490 1490 1490 1490 1489 1488 1487 1486 1486 1486 1486 1485 1485 1485 1485 1485 1486 1486 1486
1493 1493 1493 1492 1492 1492 1491 1491 1490 1490 1490 1489 1489 1489 1489 1489 1488 1488 1487 1487 1487 1486 1486 1486 1485 1485 1483 1482 1482 1482 1481 1481 1481 1481 1481 1482 1482 1482
1491 1491 1490 1490 1489 1489 1488 1488 1487 1487 1487 1486 1486 1486 1486 1486 1485 1485 1485 1484 1484 1483 1483 1483 1482 1482 1481 1479 1478 1478 1478 1477 1477 1477 1477 1477 1477 1477
1489 1488 1488 1488 1487 1486 1486 1485 1485 1484 1484 1484 1483 1483 1483 1482 1482 1482 1482 1481 1481 1481 1480 1480 1479 1478 1477 1476 1475 1474 1474 1473 1473 1473 1473 1473 1473 1473
1486 1486 1485 1485 1484 1484 1484 1483 1482 1482 1481 1481 1480 1480 1480 1479 1479 1479 1478 1478 1477 1477 1477 1476 1475 1474 1474 1472 1471 1471 1470 1469 1469 1469 1469 1469 1469 1469
1483 1483 1483 1482 1482 1482 1481 1480 1480 1479 1479 1478 1477 1477 1476 1476 1476 1475 1475 1474 1473 1473 1472 1472 1471 1470 1469 1468 1467 1466 1466 1465 1465 1465 1465 1464 1464 1464
1481 1480 1480 1480 1479 1479 1479 1478 1477 1477 1476 1475 1475 1474 1473 1473 1472 1472 1471 1470 1470 1468 1468 1467 1467 1466 1465 1465 1463 1462 1462 1461 1461 1460 1460 1459 1459 1459
1479 1478 1477 1477 1477 1477 1477 1476 1475 1474 1473 1473 1472 1471 1470 1469 1468 1468 1467 1467 1466 1465 1464 1463 1462 1461 1461 1460 1460 1459 1458 1457 1457 1456 1455 1455 1454 1455
1478 1477 1476 1476 1475 1475 1474 1474 1473 1472 1471 1470 1469 1468 1467 1466 1465 1464 1463 1463 1462 1461 1460 1460 1459 1458 1456 1455 1455 1455 1454 1453 1452 1452 1451 1451 1450 1450
1476 1476 1475 1474 1473 1472 1472 1471 1470 1469 1468 1467 1466 1465 1465 1463 1462 1461 1460 1459 1458 1457 1456 1456 1455 1454 1453 1452 1451 1450 1450 1449 1448 1447 1447 1446 1446 1446
1475 1475 1474 1473 1472 1470 1469 1468 1468 1467 1466 1465 1464 1462 1461 1460 1459 1458 1457 1456 1455 1454 1453 1452 1451 1451 1450 1449 1448 1446 1446 1446 1445 1444 1443 1443 1442 1441
1473 1472 1471 1471 1469 1468 1467 1466 1465 1464 1463 1462 1461 1459 1458 1457 1456 1455 1454 1453 1452 1451 1450 1449 1448 1447 1447 1446 1444 1443 1442 1442 1441 1440 1440 1439 1439 1438
1471 1470 1469 1468 1467 1466 1464 1463 1462 1461 1460 1458 1457 1456 1455 1454 1453 1452 1451 1450 1449 1448 1446 1445 1444 1444 1443 1442 1441 1440 1438 1437 1437 1436 1435 1435 1435 1435